User: anonymous   Login
Location: Walnut Point State Park
(39.6958°N, 88.0345°W)
Time: 02:50:49
(UTC-05:00)
Language:

Iridium 75 - Orbit

View from above orbital plane
View from above orbital plane
View from above satellite
View from above satellite

Ground track
Ground track

The orbit data is extracted from the following two-line orbital elements,

1 25346U 98032E   15245.76047786 +.00000218 +00000-0 +70763-4 0  9992
2 25346 086.3998 137.2781 0002160 081.0549 338.1264 14.34224789905746
Epoch (UTC): 02 September 2015 18:15:05
Eccentricity: 0.0002160
inclination: 86.3998°
perigee height: 776 km
apogee height: 779 km
right ascension of ascending node: 137.2781°
argument of perigee: 81.0549°
revolutions per day: 14.34224789
mean anomaly at epoch: 338.1264°
orbit number at epoch: 90574

The dashed part of the orbit path shows where the satellite is in the earth's shadow,  

DLR